ASIASAT 8 (AMOS-7)

Last updated on Tue Sep 22 2026 00:03:13 GMT+0000 (Coordinated Universal Time)

1 40107U 14046A 26264.58119775 -.00000337 00000+0 00000+0 0 9992 2 40107 0.0147 123.0202 0001623 46.9360 145.0635 1.00271941103111
UTC large
Height (km)
Speed (km/s)
/
Latitude / Longitude
Inclination (degrees)
Orbital Period (minutes)
Azimuth
Elevation
Range (km)
Doppler Factor

Next 0 passes for location: London (51.5072 / 0.1276)

No passes found over London.
ASIASAT 8 (AMOS-7)